Location: Brunsen
(51.8651°N, 9.8610°E)
Time: 19:52:19
(UTC+00:00)

CZ-2C R/B - Pass Details

Date: 16 August 2024
Orbit: 782 x 869 km, 98.3° (Epoch: 07 September)

Event Time Altitude Azimuth Distance (km) Brightness Sun altitude
Exits shadow 02:17:20 21° 236° (WSW) 1,801 3.8 -14.7°
Maximum altitude 02:19:19 26° 268° (W) 1,598 3.8 -14.4°
Drops below altitude 10° 02:23:47 10° 324° (NW) 2,436 5.2 -14.0°
Sets 02:26:31 0° 337° (NNW) 3,358 6.1 -13.7°
